[[{"header":{"parameterUnit":"m.s-1","parameterCategory":1,"la1":30.2991,"la2":30.254,"lo1":-89.0895,"lo2":-89.0444,"dy":0.0017,"dx":0.0017,"nx":28,"ny":28,"refTime":"2023-07-23T21:00:00:Z","depth":0,"parameterNumber":2,"parameterNumberName":"U-component_of_WINDS"},"data":[0,0,0,0,0,0,0,0,0,0,0,0,0,0,0,0,0,0,0,0,0,0,0,0,0,0,0,0,0,0,0,0,0,0,0,0,0,0,0,0,0,0,0,0,0,0,0,0,0,0,0,0,0,0,0,0,0,0,-2.4671,-2.4671,0,-2.4638,-2.4637,-2.4637,-2.4574,-2.4572,-2.4571,-2.457,-2.4538,-2.4538,-2.4538,0,0,0,0,0,0,0,0,0,0,0,0,0,-2.4684,-2.4684,-2.4672,-2.4671,-2.4671,-2.4638,-2.4637,-2.4637,-2.4574,-2.4572,-2.4571,-2.457,-2.4538,-2.4538,-2.4538,0,0,0,0,0,0,0,0,0,0,0,0,0,-2.4667,-2.4684,-2.4672,-2.4635,-2.4632,-2.4638,-2.4637,-2.4637,-2.4574,-2.4572,-2.4571,-2.4569,-2.4538,-2.4538,-2.4538,-2.4578,0,0,-2.454,-2.454,0,0,0,0,0,0,0,0,-2.4668,-2.4667,-2.4641,-2.4638,-2.4634,-2.4608,-2.463,-2.4617,-2.4575,-2.4596,-2.457,-2.4568,-2.4563,-2.4561,-2.4559,-2.4577,-2.4575,-2.454,-2.454,-2.454,-2.454,0,0,0,0,0,0,0,-2.4669,-2.4668,-2.4658,-2.4641,-2.4636,-2.4621,-2.4617,-2.4627,-2.459,-2.4594,-2.4589,-2.4586,-2.456,-2.4559,-2.4558,-2.4575,-2.454,-2.454,-2.454,-2.4541,-2.4624,-2.4626,0,0,0,0,0,0,-2.4675,-2.4669,-2.4659,-2.4657,-2.4647,-2.4623,-2.4618,-2.4618,-2.459,-2.4584,-2.4588,-2.4583,-2.4559,-2.4557,-2.4556,-2.4601,-2.454,-2.4541,-2.4541,-2.4622,-2.4625,-2.4627,0,0,0,0,0,0,-2.4676,-2.4675,-2.4661,-2.4662,-2.4659,-2.4624,-2.4625,-2.4618,-2.4616,-2.4585,-2.4579,-2.4592,-2.4557,-2.4556,-2.4573,-2.4599,-2.4541,-2.4541,-2.462,-2.4623,-2.4626,-2.4692,0,0,0,0,0,0,-2.4677,-2.4676,-2.469,-2.4663,-2.4659,-2.4678,-2.4627,-2.4619,-2.4617,-2.4611,-2.4588,-2.4582,-2.4556,-2.4573,-2.4574,-2.4599,-2.4542,-2.4617,-2.4621,-2.4625,-2.4687,-2.4697,-2.4705,0,0,0,0,0,-2.4677,-2.471,-2.4691,-2.469,-2.4676,-2.4679,-2.4677,-2.4645,-2.4619,-2.4634,-2.4614,-2.4583,-2.4596,-2.4575,-2.4575,-2.4601,-2.4616,-2.462,-2.4624,-2.4683,-2.4695,-2.4705,0,0,0,0,0,0,-2.4742,-2.4706,-2.4684,-2.4709,-2.4698,-2.4669,-2.4686,-2.4659,-2.4655,-2.4649,-2.461,-2.4606,-2.4629,-2.4617,-2.4594,-2.4639,-2.4601,-2.4606,-2.4646,-2.4657,-2.4665,-2.4668,-2.4542,0,0,0,0,0,-2.4759,-2.4764,-2.4732,-2.4758,-2.4753,-2.4721,-2.4721,-2.4697,-2.4684,-2.4679,-2.466,-2.4649,-2.4651,-2.4653,-2.4653,-2.4685,-2.468,-2.4703,-2.4712,-2.4719,-2.4724,-2.4741,-2.4751,-2.4641,-2.4641,-2.4641,0,0,-2.4795,-2.4776,-2.4781,-2.477,-2.4759,-2.4765,-2.4717,-2.4726,-2.4731,-2.4681,-2.4696,-2.4682,-2.4667,-2.4693,-2.4703,-2.4683,-2.4753,-2.4725,-2.4731,-2.4732,-2.4747,-2.4757,-2.4767,-2.4644,-2.4644,-2.4643,0,0,-2.4863,-2.4849,-2.4869,-2.4858,-2.4841,-2.4819,-2.4824,-2.4799,-2.4787,-2.4802,-2.4764,-2.477,-2.4774,-2.4765,-2.4761,-2.4827,-2.4799,-2.4828,-2.4874,-2.4891,-2.49,-2.4908,-2.4932,-2.4941,-2.4832,-2.4833,-2.4833,0,-2.491,-2.4918,-2.4882,-2.4894,-2.4891,-2.4845,-2.4865,-2.4856,-2.484,-2.484,-2.4818,-2.4821,-2.4808,-2.4831,-2.4847,-2.4845,-2.4851,-2.483,-2.4901,-2.4909,-2.4915,-2.4938,-2.4947,-2.4836,-2.4836,-2.4836,-2.4835,0,-2.4977,-2.4983,-2.5001,-2.4986,-2.4985,-2.5001,-2.4968,-2.4971,-2.4948,-2.4929,-2.4945,-2.4928,-2.4923,-2.4927,-2.4904,-2.4947,-2.4936,-2.4908,-2.487,-2.493,-2.4951,-2.4959,-2.4842,-2.484,-2.4839,-2.4838,0,0,-2.5085,-2.505,-2.5058,-2.5051,-2.5029,-2.5033,-2.5047,-2.5043,-2.5047,-2.5037,-2.5049,-2.5053,-2.5027,-2.5023,-2.4999,-2.5014,-2.5069,-2.4985,-2.4984,-2.5002,-2.5116,-2.5137,-2.5148,-2.5049,-2.5051,-2.5052,-2.5117,0,-2.515,-2.5171,-2.514,-2.5169,-2.5175,-2.5131,-2.5144,-2.5132,-2.5115,-2.5118,-2.5099,-2.5103,-2.5068,-2.5066,-2.5078,-2.5059,-2.5091,-2.5054,-2.5061,-2.5062,-2.5067,-2.5158,-2.5181,-2.5243,-2.5125,-2.5126,-2.5127,0,-2.5227,-2.5221,-2.5251,-2.5227,-2.5229,-2.5241,-2.5234,-2.5237,-2.5223,-2.521,-2.5205,-2.5177,-2.519,-2.5152,-2.5171,-2.5146,-2.5147,-2.5138,-2.514,-2.514,-2.5099,-2.5162,-2.5262,-2.5272,-2.514,-2.5139,-2.5138,0,-2.5305,-2.5304,-2.5322,-2.5317,-2.529,-2.5299,-2.5288,-2.5273,-2.5272,-2.5267,-2.5266,-2.5262,-2.5261,-2.5259,-2.5231,-2.5206,-2.5253,-2.5213,-2.5243,-2.5244,-2.5256,-2.5256,-2.5359,-2.5255,-2.5255,-2.5255,-2.5255,0,-2.538,-2.54,-2.5356,-2.5367,-2.5389,-2.5353,-2.5376,-2.536,-2.5347,-2.5355,-2.5317,-2.5326,-2.5287,-2.5292,-2.527,-2.5289,-2.5289,-2.5279,-2.5273,-2.5283,-2.5284,-2.5283,-2.5279,-2.5257,-2.5257,-2.5256,-2.5256,0,-2.5471,-2.5442,-2.5458,-2.5431,-2.5425,-2.5442,-2.5419,-2.5429,-2.5409,-2.542,-2.542,-2.5389,-2.5393,-2.5364,-2.5363,-2.5348,-2.5378,-2.5364,-2.5383,-2.5379,-2.5411,-2.5409,-2.5518,-2.5531,-2.5418,-2.542,-2.542,0,-2.5521,-2.5536,-2.551,-2.5512,-2.5503,-2.5507,-2.5506,-2.5472,-2.5473,-2.5458,-2.547,-2.547,-2.5469,-2.5477,-2.5455,-2.5454,-2.544,-2.5479,-2.544,-2.545,-2.5442,-2.5442,-2.5444,-2.5487,-2.5488,-2.549,-2.549,0,-2.5614,-2.5599,-2.5599,-2.5594,-2.5594,-2.5588,-2.5581,-2.5585,-2.5547,-2.555,-2.5553,-2.5552,-2.555,-2.5552,-2.5546,-2.5536,-2.5508,-2.5503,-2.551,-2.552,-2.5531,-2.5527,-2.5406,-2.5501,-2.55,-2.5499,-2.5498,-2.5498,-2.5687,-2.5698,-2.5681,-2.5683,-2.5673,-2.5667,-2.5674,-2.5655,-2.5657,-2.5652,-2.5632,-2.5639,-2.5625,-2.5615,-2.5608,-2.5613,-2.5595,-2.5605,-2.5608,-2.5611,-2.5617,-2.5529,-2.5612,-2.5612,-2.5611,-2.5611,-2.5611,0,-2.5778,-2.5766,-2.5767,-2.5757,-2.5758,-2.573,-2.572,-2.5724,-2.573,-2.5719,-2.5719,-2.5723,-2.5724,-2.5702,-2.5701,-2.571,-2.5697,-2.5711,-2.571,-2.5708,-2.5633,-2.5627,-2.5721,-2.5721,-2.5721,-2.5721,-2.5721,-2.5721,-2.5826,-2.5844,-2.5827,-2.584,-2.5827,-2.5833,-2.583,-2.5824,-2.5815,-2.5821,-2.5822,-2.5807,-2.5793,-2.579,-2.579,-2.5784,-2.5786,-2.5804,-2.5794,-2.5724,-2.5713,-2.5703,-2.5698,-2.5805,-2.5805,-2.5868,-2.5869,-2.587]},{"header":{"parameterUnit":"m.s-1","parameterCategory":1,"la1":30.2991,"la2":30.254,"lo1":-89.0895,"lo2":-89.0444,"dy":0.0017,"dx":0.0017,"nx":28,"ny":28,"refTime":"2023-07-23T21:00:00:Z","depth":0,"parameterNumber":3,"parameterNumberName":"V-component_of_WINDS"},"data":[0,0,0,0,0,0,0,0,0,0,0,0,0,0,0,0,0,0,0,0,0,0,0,0,0,0,0,0,0,0,0,0,0,0,0,0,0,0,0,0,0,0,0,0,0,0,0,0,0,0,0,0,0,0,0,0,0,0,-2.1637,-2.1636,0,-2.1582,-2.1582,-2.1581,-2.1519,-2.1518,-2.1517,-2.1517,-2.1459,-2.1458,-2.1457,0,0,0,0,0,0,0,0,0,0,0,0,0,-2.1684,-2.1684,-2.1637,-2.1636,-2.1635,-2.1583,-2.1582,-2.1581,-2.1519,-2.1518,-2.1517,-2.1516,-2.1459,-2.1458,-2.1457,0,0,0,0,0,0,0,0,0,0,0,0,0,-2.165,-2.1683,-2.1637,-2.1598,-2.1594,-2.1583,-2.1582,-2.1581,-2.152,-2.1518,-2.1517,-2.1516,-2.1459,-2.1458,-2.1457,-2.1478,0,0,-2.1454,-2.1453,0,0,0,0,0,0,0,0,-2.1652,-2.1648,-2.1605,-2.1601,-2.1596,-2.1556,-2.1577,-2.1546,-2.152,-2.1548,-2.1517,-2.1515,-2.1492,-2.1488,-2.1481,-2.1475,-2.1473,-2.1454,-2.1453,-2.1453,-2.1452,0,0,0,0,0,0,0,-2.1654,-2.165,-2.1615,-2.1604,-2.1599,-2.1583,-2.1576,-2.1571,-2.1528,-2.1545,-2.1541,-2.1535,-2.1489,-2.1482,-2.1479,-2.1472,-2.1454,-2.1453,-2.1452,-2.1452,-2.148,-2.1482,0,0,0,0,0,0,-2.1663,-2.1653,-2.1617,-2.1613,-2.1621,-2.1583,-2.1576,-2.157,-2.1528,-2.152,-2.1537,-2.1533,-2.1485,-2.148,-2.1477,-2.1498,-2.1453,-2.1452,-2.1451,-2.1479,-2.1481,-2.1482,0,0,0,0,0,0,-2.1664,-2.166,-2.1619,-2.1632,-2.1625,-2.1584,-2.1578,-2.157,-2.1563,-2.1522,-2.1513,-2.1537,-2.1483,-2.1478,-2.1478,-2.1496,-2.1451,-2.145,-2.1477,-2.148,-2.1481,-2.1542,0,0,0,0,0,0,-2.1666,-2.1661,-2.167,-2.1633,-2.1625,-2.1622,-2.1579,-2.157,-2.1561,-2.1556,-2.152,-2.1513,-2.1482,-2.148,-2.1477,-2.1493,-2.1449,-2.1476,-2.1478,-2.1481,-2.1539,-2.1546,-2.1553,0,0,0,0,0,-2.1668,-2.1688,-2.167,-2.1666,-2.1635,-2.1624,-2.1619,-2.1584,-2.1563,-2.1571,-2.1544,-2.1514,-2.1494,-2.1481,-2.1477,-2.1493,-2.1474,-2.1478,-2.1481,-2.1536,-2.1545,-2.1553,0,0,0,0,0,0,-2.1728,-2.1683,-2.1662,-2.1672,-2.1652,-2.1613,-2.1622,-2.1595,-2.158,-2.1576,-2.1532,-2.1524,-2.153,-2.1511,-2.1497,-2.1511,-2.148,-2.1482,-2.1523,-2.1531,-2.1538,-2.1543,-2.1449,0,0,0,0,0,-2.1742,-2.1738,-2.1698,-2.171,-2.1702,-2.1664,-2.1658,-2.1632,-2.161,-2.1601,-2.1574,-2.1553,-2.1542,-2.1536,-2.1523,-2.1536,-2.1527,-2.1545,-2.1552,-2.1558,-2.1561,-2.1565,-2.1573,-2.1492,-2.1492,-2.1492,0,0,-2.1772,-2.1747,-2.1746,-2.1722,-2.1704,-2.1699,-2.1657,-2.1654,-2.165,-2.16,-2.1599,-2.1579,-2.1552,-2.1558,-2.156,-2.1543,-2.1581,-2.1562,-2.1567,-2.1566,-2.1569,-2.1577,-2.1584,-2.1494,-2.1494,-2.1494,0,0,-2.1823,-2.1804,-2.1812,-2.1795,-2.1768,-2.1742,-2.1745,-2.171,-2.1695,-2.1693,-2.1655,-2.1649,-2.1631,-2.1614,-2.1602,-2.1647,-2.1618,-2.1644,-2.1681,-2.1687,-2.1693,-2.1698,-2.1714,-2.172,-2.1647,-2.1647,-2.1647,0,-2.1863,-2.1856,-2.1819,-2.1819,-2.1809,-2.1764,-2.1771,-2.1756,-2.1726,-2.172,-2.1702,-2.1679,-2.1657,-2.1659,-2.167,-2.1662,-2.1663,-2.1648,-2.1695,-2.17,-2.1705,-2.1719,-2.1725,-2.165,-2.165,-2.165,-2.1649,0,-2.1906,-2.1902,-2.1911,-2.1885,-2.1876,-2.1879,-2.1842,-2.1837,-2.1813,-2.1789,-2.1787,-2.176,-2.1742,-2.174,-2.1716,-2.1738,-2.1728,-2.1703,-2.1671,-2.1716,-2.1729,-2.1734,-2.1655,-2.1654,-2.1653,-2.1652,0,0,-2.1994,-2.1947,-2.1951,-2.1939,-2.1906,-2.1901,-2.1902,-2.1885,-2.1882,-2.1862,-2.1862,-2.1848,-2.1824,-2.1812,-2.1785,-2.179,-2.1826,-2.1764,-2.1762,-2.1776,-2.1849,-2.1868,-2.1875,-2.1807,-2.1808,-2.1809,-2.1851,0,-2.204,-2.204,-2.2007,-2.2016,-2.2011,-2.1968,-2.1969,-2.1949,-2.1926,-2.1918,-2.1893,-2.1884,-2.1854,-2.1846,-2.1848,-2.1822,-2.184,-2.1818,-2.1805,-2.1805,-2.1814,-2.1882,-2.1902,-2.1943,-2.1856,-2.1857,-2.1857,0,-2.2093,-2.2078,-2.2087,-2.2054,-2.2051,-2.2052,-2.2033,-2.2027,-2.2002,-2.1985,-2.1971,-2.1941,-2.1939,-2.1909,-2.1904,-2.189,-2.1883,-2.1869,-2.1869,-2.1867,-2.1834,-2.1881,-2.1955,-2.1961,-2.1865,-2.1864,-2.1864,0,-2.2156,-2.2138,-2.2141,-2.2132,-2.2093,-2.2095,-2.2079,-2.2053,-2.2045,-2.2028,-2.2022,-2.2005,-2.1995,-2.1982,-2.1948,-2.1929,-2.1947,-2.1914,-2.1933,-2.1934,-2.1938,-2.1939,-2.2013,-2.1934,-2.1934,-2.1934,-2.1934,0,-2.2211,-2.2218,-2.2169,-2.2171,-2.2177,-2.2139,-2.2146,-2.2125,-2.2103,-2.2099,-2.2061,-2.2058,-2.2013,-2.2005,-2.1977,-2.1978,-2.1974,-2.196,-2.1952,-2.1963,-2.1965,-2.1958,-2.1954,-2.1935,-2.1935,-2.1935,-2.1935,0,-2.2282,-2.225,-2.2251,-2.2214,-2.2205,-2.2212,-2.218,-2.2179,-2.2155,-2.2151,-2.2147,-2.2108,-2.2097,-2.2061,-2.204,-2.2022,-2.203,-2.2016,-2.2039,-2.2034,-2.2055,-2.2053,-2.2126,-2.2134,-2.2051,-2.2052,-2.2053,0,-2.2319,-2.2324,-2.2288,-2.2284,-2.2269,-2.2262,-2.2254,-2.2215,-2.2208,-2.218,-2.2183,-2.2169,-2.2155,-2.2138,-2.2107,-2.2091,-2.2076,-2.2103,-2.2074,-2.2084,-2.2076,-2.2077,-2.2077,-2.211,-2.2111,-2.2112,-2.2112,0,-2.2388,-2.2372,-2.2362,-2.2346,-2.2337,-2.2322,-2.2305,-2.2303,-2.226,-2.2253,-2.2242,-2.2231,-2.221,-2.2196,-2.2175,-2.2157,-2.2127,-2.2122,-2.2125,-2.2136,-2.2149,-2.2142,-2.2056,-2.212,-2.212,-2.2119,-2.2119,-2.2118,-2.2443,-2.2445,-2.2421,-2.241,-2.2394,-2.2379,-2.2377,-2.2352,-2.2342,-2.2323,-2.23,-2.2291,-2.2266,-2.2234,-2.2218,-2.221,-2.2194,-2.2199,-2.22,-2.2202,-2.2207,-2.2151,-2.2206,-2.2205,-2.2205,-2.2205,-2.2205,0,-2.251,-2.2492,-2.2483,-2.2461,-2.2453,-2.2427,-2.2406,-2.2401,-2.2393,-2.2373,-2.236,-2.2347,-2.2333,-2.2301,-2.2284,-2.2283,-2.2269,-2.228,-2.2279,-2.2275,-2.2222,-2.2221,-2.2291,-2.2291,-2.2291,-2.2291,-2.2291,-2.2291,-2.2544,-2.2546,-2.2527,-2.252,-2.2502,-2.2493,-2.2484,-2.2469,-2.2453,-2.244,-2.2428,-2.2408,-2.2382,-2.2363,-2.2349,-2.2339,-2.2335,-2.235,-2.2336,-2.2287,-2.2279,-2.2271,-2.227,-2.2349,-2.2349,-2.239,-2.239,-2.2391]}]]